Regional Weather Roundup
Issued by NWS

Home | Current Version | Previous Version | Text Only | Print | Product List | Glossary Off
Versions: 1 2 3 4 5 6 7 8 9 10 11 12 13 14 15 16 17 18 19 20 21 22 23 24 25 26 27

000
ASUS45 KBOU 280007
RWRCO

WEATHER ROUNDUP FOR COLORADO
NATIONAL WEATHER SERVICE DENVER/BOULDER CO
600 PM MDT SAT MAY 27 2017

NOTE: "FAIR" INDICATES FEW OR NO CLOUDS BELOW 12000 FEET WITH NO
SIGNIFICANT WEATHER AND/OR OBSTRUCTIONS TO VISIBILITY.

COZ001>005-013-030-031-280100-
...NORTHWEST COLORADO...

CITY           SKY/WX    TMP DP  RH WIND       PRES   REMARKS
CRAIG          CLOUDY    59  24  26 NW14G21   30.23R
HAYDEN         FAIR      50  36  57 E14       30.25S
MEEKER         CLOUDY    61  28  28 N8        30.23R
RABBIT EARS PA NOT AVBL
STEAMBOAT SPGS NOT AVBL
WALDEN         NOT AVBL
$$

COZ006>008-011-280100-
...WEST CENTRAL VALLEYS...

CITY           SKY/WX    TMP DP  RH WIND       PRES   REMARKS
GRAND JUNCTION LGT RAIN  71  29  21 NE14      30.11R
MONTROSE       FAIR      67  25  20 N12       30.14R
EAGLE          PTSUNNY   52  37  58 E10       30.26R
RIFLE          FAIR      67  29  24 N13G21    30.17R
DELTA          FAIR      75  19  12 W15G26    30.12R
NUCLA          FAIR      72  18  13 NW16      30.16R
$$

COZ017>023-064>068-280100-
...SOUTHWEST COLORADO...

CITY           SKY/WX    TMP DP  RH WIND       PRES   REMARKS
DURANGO        FAIR      66  23  19 NW18      30.14R
CORTEZ         FAIR      71  19  14 N8        30.10S
PAGOSA SPRINGS FAIR      63  14  15 W18G24    30.18R
TELLURIDE      PTSUNNY   52  24  33 N3        30.28R
WOLF CREEK PAS NOT AVBL
$$

COZ009-010-012-014-032>034-037-058>063-280100-
...CENTRAL COLORADO...

CITY           SKY/WX    TMP DP  RH WIND       PRES   REMARKS
ASPEN          FAIR      50  30  46 SW8G16    30.25R
BUENA VISTA    FAIR      50  28  43 NW37G47   30.20R
COPPER MTN     NOT AVBL
BERTHOUD PASS  NOT AVBL
COTTONWOOD PAS NOT AVBL
GUNNISON       FAIR      58  25  28 NW10G29   30.20R
KREMMLING      NOT AVBL
LEADVILLE      LGT SNOW  34  30  85 S5        30.33R FOG     WCI  30
SALIDA         PTSUNNY   59  27  29 NW20G26   30.25R
SUNLIGHT       NOT AVBL
WILKERSON PASS NOT AVBL
$$

COZ069>075-280100-
...SAN LUIS VALLEY/SANGRE DE CRISTO MOUNTAINS...

CITY           SKY/WX    TMP DP  RH WIND       PRES   REMARKS
ALAMOSA        CLOUDY    61  29  29 NE13G26   30.12R
DEL NORTE      NOT AVBL
LA VETA PASS   NOT AVBL
SAGUACHE       NOT AVBL
$$

COZ035-036-038>040-280100-
...NORTHERN COLORADO FRONT RANGE...

CITY           SKY/WX    TMP DP  RH WIND       PRES   REMARKS
DENVER INTL AP PTSUNNY   53  42  66 N7        30.20R
DMNS CITY PARK   N/A     54  41  61 N18       30.20S
AURORA         PTSUNNY   53  42  66 N16       30.21R
FRONT RANGE AP PTSUNNY   54  46  76 NW14      30.22R
ERIE MUNI ARPT NOT AVBL
BOULDER MUN AP NOT AVBL
CENTENNIAL     PTSUNNY   54  41  61 N13       30.20R
BROOMFIELD     LGT RAIN  52  45  76 NE7       30.22R
FORT COLLINS   PTSUNNY   55  45  68 S10       30.19R
LONGMONT       NOT AVBL
$$

COZ041-046-047-076>085-087-088-280100-
...PIKES PEAK/PALMER DIVIDE AND SOUTHERN FOOTHILLS...

CITY           SKY/WX    TMP DP  RH WIND       PRES   REMARKS
COLO. SPRINGS  PTSUNNY   50  42  74 NW9       30.21S
A. F. ACADEMY  PTSUNNY   49  39  69 NW14      30.20F
SCHRIEVER AFB  FAIR      50  41  71 N13       30.20F
CHEYENNE MTN   LGT RAIN  45  39  77 NW13      30.15R
ELLICOTT       PTSUNNY  N/A N/A N/A NE10      30.19S
FALCON         FAIR      48  38  68 N6        30.23R
FORT CARSON    PTSUNNY   49  43  78 N14       30.18S
LIMON          FAIR      53  43  68 NW16      30.18R
MONUMENT HILL  NOT AVBL
CANON CITY     NOT AVBL
WALSENBURG     CLOUDY    50  46  87 N16G25    30.19R
TRINIDAD       FAIR      53  46  77 N16G32    30.15R
$$

COZ042>045-048>051-090-091-280100-
...NORTHEAST COLORADO...

CITY           SKY/WX    TMP DP  RH WIND       PRES   REMARKS
GREELEY ARPT   LGT RAIN  52  47  83 S10G21    30.18R
AKRON          FAIR      61  42  49 N15       30.13S
BURLINGTON     FAIR      54  49  83 NW13      30.11F
WRAY           PTSUNNY   61  50  67 SW3       30.07F
YUMA           NOT AVBL
STERLING       NOT AVBL
HOLYOKE        NOT AVBL
FORT MORGAN    FAIR      60  36  39 N8        30.15S
$$

COZ086-089-092>099-280100-
...SOUTHEAST COLORADO...

CITY           SKY/WX    TMP DP  RH WIND       PRES   REMARKS
PUEBLO         CLOUDY    53  44  71 N23G30    30.15R
LA JUNTA       HVY RAIN  50  46  86 N21G30    30.15R FOG
LAMAR          LGT RAIN  52  47  83 N20G37    30.08R
SPRINGFIELD      N/A     53  52  96 N10G39    30.08R
$$




USA.gov is the U.S. government's official web portal to all federal, state and local government web resources and services.